Weather in Atibaia

Brazil     23°07′02″S   46°32′59″W
temp.,
°C
wind,
m/s
gust,
m/s
humid.,
%
clouds,
%
prec.,
mm/h
press.,
hPa
HPBL,
m
3 march, wed
wed300:00+17ene1294100 0.0 101626
03:00+17ne1294100 0.0 101626
06:00+17ne1296100 0.0 101632
09:00+22nne378497 0.0 1018641
12:00+26nnw356270 0.6 10171473
15:00+25nnw247462 2.0 10151032
18:00+21wnw1292100 2.1 101429
21:00+18ne1195100 3.5 101623
4 march, thu
thu400:00+18ne1295100 0.2 101627
03:00+17nne229497 0.2 101529
06:00+16nne1294100 0.0 101527
09:00+22nnw3882100 0.0 1016658
12:00+24nw587596 0.9 10141177
15:00+21wnw489498 5.4 1012599
18:00+20wnw1596100 3.1 1012200
21:00+18n1198100 3.4 101332
5 march, fri
fri500:00+18n1296100 0.0 101256
03:00+18n2296100 0.0 101078
06:00+18nnw2995100 0.0 1010309
09:00+22nnw6117959 0.0 1011968
12:00+23nw6118234 0.9 10091289
15:00+22nw6119368 4.8 10081043
18:00+20nw41195100 1.2 1007849
21:00+19nnw4139799 1.7 1009774
6 march, sat
sat600:00+18nnw41298100 0.4 1009667
03:00+18nw41198100 0.4 1008715
06:00+19nw5129797 0.7 1008731
09:00+19nw5119799 1.8 1010852
12:00+19nw41199100 7.9 1010708
15:00+20nw599599 8.9 1009693
18:00+18nnw389598 0.3 1009402
21:00+18nnw129599 0.3 101151
7 march, sun
sun700:00+18nnw1195100 0.0 101233
03:00+17nnw1297100 0.0 101153
06:00+16nw119888 0.2 101224
09:00+21nw248793 0.3 1013546
12:00+23wnw2488100 3.0 1013701
15:00+23wnw239197 7.5 1011600
18:00+20s119583 4.9 101223
21:00+18ese269891 6.1 1014204